| time (UTC) | temp F | wind direction | speed knots | gust knots | rain 1hr in | rain 24hr in | rain mn in | humidity % | barometer mb |
| 20260505124543 | 64 | 300 | 0.9 | 2.6 | 0.00 | 0.00 | 0.00 | 84 | 1017.6 |
| 20260505123033 | 63 | 222 | 0.9 | 2.6 | 0.00 | 0.00 | 0.00 | 86 | 1017.6 |
| 20260505121546 | 62 | 297 | 0.0 | 1.7 | 0.00 | 0.00 | 0.00 | 87 | 1017.5 |
| 20260505120026 | 61 | 68 | 0.0 | 1.7 | 0.00 | 0.00 | 0.00 | 89 | 1017.4 |
| 20260505114525 | 60 | 264 | 0.0 | 1.7 | 0.00 | 0.00 | 0.00 | 90 | 1017.3 |
| 20260505113024 | 59 | 271 | 0.0 | 1.7 | 0.00 | 0.00 | 0.00 | 91 | 1017.3 |
| 20260505111528 | 58 | 251 | 0.0 | 0.9 | 0.00 | 0.00 | 0.00 | 92 | 1017.1 |
| 20260505101545 | 56 | 194 | 0.0 | 0.0 | 0.00 | 0.00 | 0.00 | 93 | 1016.5 |
| 20260505100058 | 56 | 185 | 0.0 | 0.0 | 0.00 | 0.00 | 0.00 | 92 | 1016.4 |
| 20260505094536 | 57 | 223 | 0.0 | 0.9 | 0.00 | 0.00 | 0.00 | 91 | 1016.3 |
| 20260505093033 | 57 | 266 | 0.0 | 0.9 | 0.00 | 0.00 | 0.00 | 91 | 1016.2 |
| 20260505091536 | 57 | 280 | 0.0 | 0.9 | 0.00 | 0.00 | 0.00 | 91 | 1016.1 |
| 20260505090029 | 57 | 220 | 0.0 | 0.0 | 0.00 | 0.00 | 0.00 | 90 | 1016.1 |
| 20260505084527 | 57 | 212 | 0.0 | 0.9 | 0.00 | 0.00 | 0.00 | 90 | 1016.0 |
| 20260505083034 | 58 | 181 | 0.0 | 0.0 | 0.00 | 0.00 | 0.00 | 90 | 1015.8 |
| 20260505081522 | 58 | 283 | 0.0 | 0.9 | 0.00 | 0.00 | 0.00 | 88 | 1016.0 |
| 20260505080019 | 59 | 59 | 0.0 | 0.9 | 0.00 | 0.00 | 0.00 | 88 | 1015.8 |
| 20260505074514 | 59 | 216 | 0.0 | 0.9 | 0.00 | 0.00 | 0.00 | 86 | 1015.7 |
| 20260505073013 | 60 | 137 | 0.0 | 0.9 | 0.00 | 0.00 | 0.00 | 86 | 1015.6 |
| 20260505071509 | 60 | 221 | 0.0 | 1.7 | 0.00 | 0.00 | 0.00 | 85 | 1015.6 |
| 20260505070009 | 60 | 174 | 0.0 | 0.9 | 0.00 | 0.00 | 0.00 | 85 | 1015.6 |
| 20260505064505 | 60 | 227 | 0.0 | 0.9 | 0.00 | 0.00 | 0.00 | 85 | 1015.5 |
| 20260505063004 | 61 | 186 | 0.0 | 1.7 | 0.00 | 0.00 | 0.00 | 84 | 1015.5 |
| 20260505061600 | 62 | 246 | 0.0 | 2.6 | 0.00 | 0.00 | 0.00 | 83 | 1015.5 |
| 20260505060059 | 62 | 175 | 0.0 | 1.7 | 0.00 | 0.00 | 0.00 | 83 | 1015.5 |
| 20260505054541 | 62 | 218 | 0.0 | 0.9 | 0.00 | 0.00 | 0.00 | 82 | 1015.5 |
| 20260505053028 | 62 | 349 | 0.0 | 1.7 | 0.00 | 0.00 | 0.00 | 82 | 1015.7 |
| 20260505051535 | 63 | 238 | 0.0 | 1.7 | 0.00 | 0.00 | 0.00 | 81 | 1015.7 |
| 20260505041533 | 64 | 346 | 0.0 | 1.7 | 0.00 | 0.00 | 0.00 | 79 | 1015.7 |
| 20260505040016 | 64 | 295 | 0.0 | 2.6 | 0.00 | 0.00 | 0.00 | 79 | 1015.6 |
| 20260505034515 | 65 | 324 | 0.0 | 1.7 | 0.00 | 0.00 | 0.00 | 79 | 1015.7 |
| 20260505033015 | 65 | 75 | 0.0 | 2.6 | 0.00 | 0.00 | 0.00 | 78 | 1015.6 |
| 20260505031524 | 66 | 233 | 0.0 | 3.5 | 0.00 | 0.00 | 0.00 | 76 | 1015.6 |
| 20260505030012 | 66 | 255 | 0.0 | 1.7 | 0.00 | 0.00 | 0.00 | 76 | 1015.7 |
| 20260505024511 | 67 | 77 | 0.0 | 1.7 | 0.00 | 0.00 | 0.00 | 75 | 1015.6 |
| 20260505023015 | 68 | 170 | 0.0 | 1.7 | 0.00 | 0.00 | 0.00 | 74 | 1015.5 |
| 20260505021516 | 68 | 233 | 0.9 | 2.6 | 0.00 | 0.00 | 0.00 | 70 | 1015.4 |
| 20260505021510 | 68 | 186 | 0.9 | 2.6 | 0.00 | 0.00 | 0.00 | 70 | 1015.4 |
| 20260505020008 | 69 | 6 | 0.9 | 3.5 | 0.00 | 0.00 | 0.00 | 65 | 1015.3 |
| 20260505014515 | 70 | 72 | 0.0 | 1.7 | 0.00 | 0.00 | 0.00 | 60 | 1015.1 |
| 20260505014513 | 70 | 93 | 0.0 | 1.7 | 0.00 | 0.00 | 0.00 | 60 | 1015.1 |
| 20260505013006 | 70 | 307 | 0.0 | 1.7 | 0.00 | 0.00 | 0.00 | 59 | 1014.8 |
| 20260505011509 | 71 | 172 | 0.0 | 1.7 | 0.00 | 0.00 | 0.00 | 58 | 1014.7 |
| 20260505010011 | 71 | 287 | 0.9 | 2.6 | 0.00 | 0.00 | 0.00 | 58 | 1014.5 |
| 20260505004504 | 71 | 302 | 0.0 | 0.9 | 0.00 | 0.00 | 0.00 | 57 | 1014.2 |
| 20260505003003 | 72 | 182 | 0.0 | 1.7 | 0.00 | 0.00 | 0.00 | 56 | 1014.1 |
| 20260505001502 | 73 | 226 | 0.0 | 1.7 | 0.00 | 0.00 | 0.00 | 54 | 1014.0 |
| 20260505000103 | 74 | 215 | 0.0 | 0.9 | 0.00 | 0.00 | 0.00 | 53 | 1014.0 |
| 20260504234559 | 75 | 256 | 0.0 | 2.6 | 0.00 | 0.00 | 0.00 | 51 | 1013.9 |
| 20260504233108 | 76 | 204 | 0.0 | 3.5 | 0.00 | 0.00 | 0.00 | 50 | 1013.6 |
| 20260504231557 | 77 | 360 | 0.0 | 2.6 | 0.00 | 0.00 | 0.00 | 47 | 1013.5 |
| 20260504230112 | 78 | 295 | 0.0 | 1.7 | 0.00 | 0.00 | 0.00 | 46 | 1013.5 |
| 20260504224611 | 79 | 220 | 0.0 | 1.7 | 0.00 | 0.00 | 0.00 | 45 | 1013.5 |
| 20260504223052 | 81 | 290 | 0.0 | 2.6 | 0.00 | 0.00 | 0.00 | 44 | 1013.5 |
| 20260504221551 | 81 | 293 | 0.9 | 3.5 | 0.00 | 0.00 | 0.00 | 43 | 1013.5 |
| 20260504220055 | 81 | 300 | 0.0 | 3.5 | 0.00 | 0.00 | 0.00 | 46 | 1013.5 |
| 20260504214547 | 81 | 160 | 0.0 | 2.6 | 0.00 | 0.00 | 0.00 | 43 | 1013.7 |
| 20260504213044 | 81 | 295 | 0.0 | 2.6 | 0.00 | 0.00 | 0.00 | 46 | 1013.7 |
| 20260504211544 | 81 | 143 | 0.0 | 5.2 | 0.00 | 0.00 | 0.00 | 45 | 1013.7 |
| 20260504210141 | 81 | 212 | 0.0 | 4.3 | 0.00 | 0.00 | 0.00 | 46 | 1013.7 |
| 20260504204546 | 82 | 195 | 0.0 | 1.7 | 0.00 | 0.00 | 0.00 | 44 | 1013.8 |
| 20260504203039 | 82 | 302 | 0.9 | 2.6 | 0.00 | 0.00 | 0.00 | 44 | 1014.0 |
| 20260504201536 | 82 | 61 | 0.0 | 3.5 | 0.00 | 0.00 | 0.00 | 45 | 1014.1 |
| 20260504200004 | 81 | 292 | 0.0 | 3.5 | 0.00 | 0.00 | 0.00 | 47 | 1014.2 |
| 20260504194600 | 80 | 207 | 0.9 | 3.5 | 0.00 | 0.00 | 0.00 | 46 | 1014.4 |
| 20260504193055 | 80 | 287 | 0.9 | 3.5 | 0.00 | 0.00 | 0.00 | 46 | 1014.4 |
| 20260504191607 | 79 | 299 | 0.9 | 3.5 | 0.00 | 0.00 | 0.00 | 46 | 1014.6 |
| 20260504190051 | 79 | 289 | 0.9 | 3.5 | 0.00 | 0.00 | 0.00 | 48 | 1014.8 |
| 20260504184549 | 79 | 245 | 0.9 | 5.2 | 0.00 | 0.00 | 0.00 | 48 | 1015.0 |
| 20260504183046 | 79 | 331 | 0.0 | 2.6 | 0.00 | 0.00 | 0.00 | 47 | 1015.2 |
| 20260504181543 | 78 | 298 | 0.9 | 3.5 | 0.00 | 0.00 | 0.00 | 47 | 1015.3 |
| 20260504180041 | 78 | 314 | 0.0 | 2.6 | 0.00 | 0.00 | 0.00 | 52 | 1015.3 |
| 20260504174537 | 76 | 103 | 0.9 | 2.6 | 0.00 | 0.00 | 0.00 | 49 | 1015.6 |
| 20260504173034 | 75 | 269 | 0.9 | 3.5 | 0.00 | 0.00 | 0.00 | 54 | 1015.7 |
| 20260504171531 | 75 | 108 | 0.9 | 3.5 | 0.00 | 0.00 | 0.00 | 53 | 1016.2 |